Juneau, AK

5:47 AM AKDT on September 22, 2017 (GMT -0800)
Juneau International

Weather History for PAJN - November, 2012

Change the Weather History Date:

Wednesday, November 28, 2012

  Actual Average Record
Temperature  
Mean Temperature 26 °F 31 °F  
Max Temperature 32 °F 36 °F 49 °F (1956)
Min Temperature 19 °F 27 °F -5 °F (2006)
Degree Days  
Heating Degree Days 39 34  
Month to date heating degree days 961 879  
Since 1 July heating degree days 2851 2564  
Moisture  
Dew Point 11 °F    
Average Humidity 62    
Maximum Humidity 92    
Minimum Humidity 32    
Precipitation  
Precipitation 0.00 in 0.20 in 1.85 in (1969)
Month to date precipitation 4.53 5.59  
Year to date precipitation 58.44 56.03  
Snow  
Snow 0.00 in 0.50 in 10.80 in (1994)
Month to date snowfall 13.3 12.0  
Since 1 July snowfall 14.7 12.8  
Since 1 September snowfall 14.7 12.8  
Snow Depth 5.00 in    
Sea Level Pressure  
Sea Level Pressure 29.80 in    
Wind  
Wind Speed 10 mph (East)    
Max Wind Speed 25 mph    
Max Gust Speed 36 mph    
Visibility 10 miles    
Events      
T = Trace of Precipitation, MM = Missing Value Source: NWS Daily Summary

Daily Weather History Graph

Daily Weather History Graph

Search for Another Location

Airport or City:

Trip Planner

Search our weather history database for the weather conditions in past years. The results will help you decide how hot, cold, wet, or windy it might be!

Date:

Astronomy

Nov. 28, 2012 Rise Set
Actual Time 8:16 AM AKST 3:16 PM AKST
Civil Twilight 7:26 AM AKST 4:05 PM AKST
Nautical Twilight 6:35 AM AKST 4:57 PM AKST
Astronomical Twilight 5:47 AM AKST 5:45 PM AKST
Moon 3:35 PM AKST (11/28) 8:21 AM AKST (11/28)
Length of Visible Light 8h 39m
Length of Day
7h 00m
Full, 100% of the Moon is Illuminated
Nov 28
Full
Dec 6
Last Quarter
Dec 12
New
Dec 19
First Quarter
Dec 28
Full

Hourly Weather History & Observations

Time (AKST) Temp. Windchill Dew Point Humidity Pressure Visibility Wind Dir Wind Speed Gust Speed Precip Events Conditions
12:53 AM 19.0 °F - 17.1 °F 92% 29.93 in 10.0 mi Calm Calm - N/A   Overcast
1:53 AM 19.9 °F - 18.0 °F 92% 29.91 in 10.0 mi Calm Calm - N/A   Mostly Cloudy
3:53 AM 21.9 °F - 19.9 °F 92% 29.89 in 10.0 mi Calm Calm - N/A   Overcast
4:53 AM 21.9 °F - 19.9 °F 92% 29.88 in 10.0 mi Calm Calm - N/A   Overcast
5:53 AM 21.0 °F 13.4 °F 19.0 °F 92% 29.88 in 10.0 mi West 5.8 mph - N/A   Mostly Cloudy
6:53 AM 21.9 °F - 19.0 °F 89% 29.87 in 10.0 mi Calm Calm - N/A   Overcast
7:53 AM 21.9 °F 17.2 °F 19.9 °F 92% 29.87 in 10.0 mi WNW 3.5 mph - N/A   Overcast
8:53 AM 21.9 °F - 19.0 °F 89% 29.87 in 10.0 mi Calm Calm - N/A   Mostly Cloudy
9:53 AM 27.0 °F 18.0 °F 16.0 °F 63% 29.86 in 10.0 mi ENE 9.2 mph 19.6 mph N/A   Overcast
10:53 AM 30.9 °F 20.2 °F 10.9 °F 43% 29.86 in 10.0 mi East 15.0 mph 26.5 mph N/A   Overcast
11:53 AM 30.0 °F 19.1 °F 10.9 °F 45% 29.83 in 10.0 mi ESE 15.0 mph 21.9 mph N/A   Mostly Cloudy
12:53 PM 30.0 °F 17.9 °F 9.0 °F 41% 29.82 in 10.0 mi ESE 18.4 mph 29.9 mph N/A   Overcast
1:53 PM 30.0 °F 18.7 °F 8.1 °F 40% 29.80 in 10.0 mi East 16.1 mph 29.9 mph N/A   Overcast
2:53 PM 30.0 °F 17.5 °F 5.0 °F 35% 29.78 in 10.0 mi East 19.6 mph 26.5 mph N/A   Overcast
3:53 PM 28.9 °F 18.2 °F 6.1 °F 38% 29.77 in 10.0 mi East 13.8 mph 26.5 mph N/A   Overcast
4:53 PM 27.0 °F 13.5 °F 6.1 °F 41% 29.76 in 10.0 mi ESE 19.6 mph 31.1 mph N/A   Overcast
5:53 PM 27.0 °F 13.2 °F 3.9 °F 37% 29.74 in 10.0 mi ESE 20.7 mph 26.5 mph N/A   Mostly Cloudy
6:53 PM 26.1 °F 15.0 °F 3.0 °F 37% 29.73 in 10.0 mi East 12.7 mph 26.5 mph N/A   Mostly Cloudy
7:53 PM 25.0 °F 11.7 °F 3.9 °F 41% 29.70 in 10.0 mi East 17.3 mph 27.6 mph N/A   Mostly Cloudy
8:53 PM 23.0 °F 10.6 °F 6.1 °F 48% 29.69 in 10.0 mi East 13.8 mph - N/A   Mostly Cloudy
9:53 PM 25.0 °F 12.6 °F 1.0 °F 36% 29.67 in 10.0 mi ESE 15.0 mph 24.2 mph N/A   Overcast
10:53 PM 24.1 °F 15.2 °F 3.0 °F 40% 29.66 in 10.0 mi SE 8.1 mph - N/A   Overcast
11:53 PM 24.1 °F 13.1 °F 3.9 °F 42% 29.65 in 10.0 mi SE 11.5 mph - N/A   Overcast